Retour au catalogue

STARLINK-11090

ActifCommunicationsVLEO
NORAD 59422·PAYLOAD·🇺🇸 United States

Lancé Apr 7, 2024 depuis Vandenberg Space Force Base

Loading…

Prochains Passages (prochaines 24 heures)

TLE

FraisSource: CelesTrak SupGP

Époque: Sep 14, 2026, 20:46 UTC

1 59422C 24065B   26257.86576389  .00055002  00000+0  45310-3 0  2577
2 59422  53.1568 241.2772 0001169  92.9412 345.8655 15.69680105    19

Suivez STARLINK-11090 en temps réel avec AllMySat

Download on the App Store